Flag for Germany Weather past 2 weeks in Recklinghausen, North Rhine-Westphalia, Germany

Now
46 °F

Light rain. Partly sunny.


Feels Like: 42 °F
Forecast: 38 / 44 °F
Wind: 9 mph from Northwest

Location: Dortmund / Wickede

Current Time: Dec 19, 2014 at 3:43:18 PM

Latest Report: Dec 19, 2014 at 2:50 PM


Visibility: N/A

Pressure: 29.83 "Hg

Humidity: 87%

Dew point: 43 °F

Location of RecklinghausenLocation

Historic Weather in Recklinghausen — Graph

°F

Recklinghausen temperature yesterday

Maximum temperature yesterday: 54 °F (at 5:20 PM)
Minimum temperature yesterday: 50 °F (at 5:20 AM)
Average temperature yesterday: 52 °F

Past Weeks' High & Low Weather Summary

 TemperatureHumidityPressure
High54 °F (Dec 18, 5:20 PM)93% (Dec 4, 8:50 PM)30.36 "Hg (Dec 4, 8:50 PM)
Low32 °F (Dec 14, 10:50 PM)57% (Dec 7, 2:20 PM)29.39 "Hg (Dec 12, 12:50 PM)
Average41 °F82%29.92 "Hg
* Reported Dec 4 2:20 PM — Dec 19 2:20 PM, Recklinghausen, Weather by CustomWeather, © 2014

Note: Actual official high and low records may vary slightly from our data, if they occured in-between our weather recording intervals... More about our weather records

Advertising

Recklinghausen weather history for previous 24 hours

 ConditionsComfort  
Time TempWeatherWind HumidityBarometerVisibility
2:20 PM
Dec 19
48 °FLight rain. Partly sunny.9 mph87%29.83 "HgN/A
1:50 PM50 °FLight rain. Partly sunny.9 mph88%29.83 "HgN/A
1:20 PM50 °FLight rain. Partly sunny.22 mph88%29.77 "Hg4 mi
12:50 PM52 °FLight rain. Partly sunny.24 mph82%29.77 "Hg5 mi
12:20 PM52 °FLight rain. Partly sunny.25 mph82%29.77 "HgN/A
11:50 AM52 °FLight rain. Partly sunny.24 mph82%29.77 "Hg6 mi
11:20 AM50 °FLight rain. Partly sunny.26 mph88%29.77 "Hg5 mi
10:50 AM52 °FLight rain. Partly sunny.26 mph82%29.77 "Hg5 mi
10:20 AM50 °FLight rain. Partly sunny.25 mph88%29.77 "HgN/A
9:50 AM50 °FLight rain. Partly sunny.24 mph88%29.77 "Hg5 mi
9:20 AM50 °FDrizzle. Partly sunny.26 mph88%29.77 "Hg4 mi
8:50 AM50 °FLight rain. Partly sunny.24 mph88%29.77 "Hg6 mi
8:20 AM52 °FLight rain. Passing clouds.24 mph82%29.77 "Hg4 mi
7:50 AM52 °FPassing clouds.24 mph82%29.80 "HgN/A
7:20 AM52 °FPassing clouds.25 mph82%29.80 "HgN/A
6:50 AM52 °FPassing clouds.24 mph82%29.80 "HgN/A
6:20 AM50 °FPassing clouds.24 mph88%29.80 "HgN/A
5:50 AM52 °FPassing clouds.24 mph82%29.80 "HgN/A
5:20 AM52 °FPassing clouds.26 mph82%29.83 "HgN/A
10:50 PM
Dec 18
52 °FDrizzle. Low clouds.24 mph88%29.86 "Hg4 mi
10:20 PM52 °FDrizzle. Overcast.25 mph88%29.83 "Hg5 mi
9:50 PM52 °FDrizzle. Overcast.23 mph88%29.83 "Hg5 mi
9:20 PM52 °FDrizzle. Low clouds.22 mph88%29.86 "Hg3 mi
8:50 PM52 °FDrizzle. Low clouds.22 mph88%29.86 "Hg4 mi
8:20 PM52 °FDrizzle. Overcast.21 mph88%29.86 "Hg4 mi
7:50 PM52 °FPassing clouds.20 mph88%29.86 "Hg6 mi
7:20 PM54 °FPassing clouds.24 mph82%29.83 "HgN/A
6:50 PM54 °FPassing clouds.24 mph82%29.83 "HgN/A
6:20 PM54 °FDrizzle. Low clouds.23 mph88%29.80 "Hg4 mi
5:50 PM54 °FDrizzle. Low clouds.22 mph88%29.80 "Hg4 mi
5:20 PM54 °FDrizzle. Low clouds.22 mph88%29.80 "Hg4 mi
4:50 PM52 °FDrizzle. Low clouds.22 mph88%29.80 "Hg6 mi
4:20 PM52 °FScattered showers. Low clouds.21 mph88%29.80 "Hg5 mi
3:50 PM52 °FOvercast.20 mph88%29.80 "Hg6 mi
3:20 PM52 °FLow clouds.17 mph88%29.80 "Hg6 mi
Weather by CustomWeather, © 2014

See weather overviewHow to use our weather pages